Location: Atlanta
(33.7490°N, 84.3880°W)
Time: 14:11:55
(UTC-05:00)

Daily predictions for brighter satellites

Satellite Brightness Start Highest point End
(mag) Time Altitude Azimuth Time Altitude Azimuth Time Altitude Azimuth
Cosmos 1782 Rocket 3.5 18:44:11 10° S 18:48:32 69° E 18:52:57 10° NNE
Cosmos 2322 Rocket 3.3 18:48:34 10° N 18:52:52 22° ENE 18:57:08 10° ESE
Cosmos 2084 4.3 18:49:20 10° NW 18:53:14 53° WSW 18:57:20 10° SSE
Meteor 1-25 Rocket 4.4 18:51:01 10° SSE 18:56:19 47° E 19:01:41 10° NNE
Okean 2 Rocket 3.1 18:53:51 10° S 18:58:17 65° E 19:02:42 10° NNE
Cosmos 1346 Rocket 2.7 18:54:34 10° N 18:58:31 65° E 19:02:21 10° SSE
Meteor 1-28 Rocket 3.6 18:57:46 10° N 19:01:33 68° WNW 19:05:19 10° SSW
ALOS 3.3 18:59:11 10° SE 19:02:59 25° ENE 19:06:47 10° NNE
COSMO-SKYMED 1 3.6 18:59:31 10° N 19:03:44 51° WNW 19:07:56 10° SSW
Cosmos 1745 Rocket 4.0 19:01:00 10° S 19:07:20 80° E 19:13:39 10° N
CENTAUR R/B 3.2 19:00:44 10° NNW 19:08:42 65° ENE 19:17:00 10° SE
H-2A R/B 4.3 19:10:31 13° E 19:11:53 16° ENE 19:14:11 10° NNE
GOES 2 Rocket 4.0 19:08:12 10° WSW 19:12:46 41° S 19:16:33 11° ESE
SL-8 R/B 4.3 19:08:19 10° NW 19:12:52 40° NNE 19:16:32 15° E
PSLV R/B 3.2 19:10:28 10° WNW 19:13:34 56° NNE 19:15:47 17° E
Cosmos 2151 Rocket 3.9 19:11:59 10° SSE 19:16:14 45° E 19:20:32 10° NNE
Cosmos 1818 3.9 19:13:46 10° S 19:18:51 43° ESE 19:23:59 10° NE
FENGYUN 3A 4.1 19:15:01 10° SE 19:20:01 40° ENE 19:25:03 10° N
deb Kosmos-1763 4.0 19:19:05 10° S 19:22:50 69° ESE 19:26:38 10° NNE
Cosmos 1386 Rocket 4.4 19:18:13 10° S 19:24:23 82° E 19:30:29 10° N
Cosmos 1812 2.7 19:22:00 10° N 19:25:49 60° E 19:29:37 10° SSE
DELTA 2 R/B (1) 4.2 19:26:05 10° WNW 19:31:29 46° N 19:35:04 20° ENE
Okean 1 Rocket 4.2 19:28:10 10° SE 19:31:26 23° E 19:31:26 23° E
Cosmos 44 Rocket 3.1 19:27:34 10° NNW 19:32:18 69° ENE 19:36:56 10° SE
SL-19 R/B 4.4 19:33:43 10° SE 19:39:06 53° ENE 19:44:43 10° N
Cosmos 2292 Rocket 3.7 19:36:22 10° S 19:40:33 73° E 19:46:15 10° N
Cosmos 1602 4.0 19:39:31 10° SSE 19:43:09 41° E 19:45:05 23° NE
Meteor 1-18 Rocket 4.3 19:40:29 10° NNW 19:46:02 77° W 19:51:37 10° S
SJ-6B 3.4 19:42:10 10° S 19:46:13 62° W 19:50:12 10° NNW
Cosmos 2360 Rocket 3.3 19:42:42 10° N 19:46:58 24° NE 19:46:58 24° NE
BREEZE-M DEB (TANK) 2.5 19:42:02 10° SW 19:47:23 64° SE 19:47:59 49° E
TSX-5 3.3 19:44:17 10° S 19:47:33 54° ESE 19:47:37 54° ESE
Cosmos 1980 Rocket 3.6 19:42:43 10° NW 19:48:00 40° WSW 19:53:16 10° S
Cosmos 1461 4.0 19:45:44 10° N 19:48:31 26° NE 19:48:31 26° NE
Cosmos 676 Rocket 3.8 19:44:16 10° S 19:49:25 75° ESE 19:54:36 10° NNE
Helios 1A 4.3 19:52:22 24° NNE 19:52:22 24° NNE 19:54:30 10° N
Cosmos 407 Rocket 3.8 19:45:50 10° SSW 19:51:00 70° WNW 19:56:17 10° NNE
Tiangong 2 3.1 19:49:14 10° NW 19:51:10 18° N 19:51:10 18° N
Gbstr 26 Del rocket 3.8 19:51:21 10° SSW 19:53:57 27° SSE 19:53:57 27° SSE
Cosmos 1833 4.1 19:51:20 10° S 19:56:59 64° ESE 20:01:50 14° NNE
FengYun 1-2 T 4.1 19:52:01 10° SSE 19:57:29 89° W 20:03:00 10° NNW
Resurs 01 Rocket 1.5 19:59:32 10° SSE 20:03:57 87° WSW 20:08:23 10° NNW
ERBS 3.2 20:01:18 10° NW 20:04:40 48° SW 20:05:29 38° S
Cosmos 44 2.9 20:00:59 10° NNW 20:05:23 86° WSW 20:06:46 42° SSE
Meteor 1-19 Rocket 4.3 20:00:04 10° N 20:05:37 53° E 20:08:13 30° SE
H-2A ROCKET BODY 4.4 19:54:58 10° W 20:09:13 26° SW 20:13:53 10° S
Cosmos 2181 Rocket 3.9 20:06:08 10° N 20:12:22 79° E 20:18:41 10° S
Cosmos 1536 Rocket 3.9 20:08:20 10° NNW 20:12:46 67° W 20:17:11 10° S
Meteor 1-13 Rocket 4.0 20:10:46 10° N 20:16:19 79° E 20:21:56 10° S
SL-16 R/B 2.4 20:11:23 10° NNW 20:17:01 70° WSW 20:22:28 11° S
ASTRO E2 3.4 20:14:29 10° W 20:18:04 48° SSW 20:18:04 48° SSW
DNEPR-1 R/B 3.6 20:17:07 10° NNW 20:20:47 67° NNW 20:20:47 67° NNW
Cosmos 1140 Rocket 3.4 20:19:26 10° SSW 20:24:33 84° WNW 20:26:22 41° NNE
Spot 2 Rocket 4.0 20:19:52 10° S 20:24:48 57° W 20:29:47 10° NNW
Cosmos 1633 3.9 20:23:30 10° SSW 20:26:58 39° W 20:28:24 27° NNW
Helios 1B rocket 2.8 20:27:48 63° WSW 20:27:48 63° WSW 20:31:36 10° SSW
OAO 3 Copernicus 4.3 20:23:00 10° W 20:27:59 76° NNW 20:27:59 76° NNW
Cosmos 2184 Rocket 3.9 20:23:40 10° S 20:29:57 67° E 20:36:12 10° NNE
Cosmos 2074 Rocket 3.8 20:26:28 10° S 20:32:40 74° E 20:38:54 10° N
Cosmos 2322 Rocket 3.2 20:31:46 10° NW 20:37:03 43° WSW 20:42:19 10° S
ALOS 4.4 20:36:25 10° SSW 20:40:17 26° W 20:44:10 10° NW
SL-08 ROCKET BODY 4.4 20:35:03 10° S 20:41:10 84° W 20:47:23 10° N
ATLAS CENTAUR R/B 4.2 20:39:15 10° SSW 20:41:26 19° SSW 20:41:26 19° SSW
Meteor 2-4 Rocket 4.5 20:46:11 10° N 20:49:50 42° NNW 20:49:50 42° NNW
Cosmos 2360 Rocket 4.0 21:26:02 10° NW 21:28:48 27° NW 21:28:48 27° NW
